TimePDT,TemperatureF,Dew PointF,Humidity,Sea Level PressureIn,VisibilityMPH,Wind Direction,Wind SpeedMPH,Gust SpeedMPH,PrecipitationIn,Events,Conditions,WindDirDegrees,DateUTC
12:15 AM,44.6,26.6,49,30.18,10.0,Calm,Calm,-,N/A,,Clear,0,2013-07-12 07:15:00
12:35 AM,44.6,28.4,53,30.18,10.0,Calm,Calm,-,N/A,,Clear,0,2013-07-12 07:35:00
12:55 AM,42.8,28.4,57,30.18,10.0,Calm,Calm,-,N/A,,Clear,0,2013-07-12 07:55:00
1:15 AM,44.6,28.4,53,30.17,10.0,Calm,Calm,-,N/A,,Clear,0,2013-07-12 08:15:00
1:35 AM,44.6,28.4,53,30.18,10.0,Calm,Calm,-,N/A,,Clear,0,2013-07-12 08:35:00
1:55 AM,42.8,28.4,57,30.18,10.0,Calm,Calm,-,N/A,,Clear,0,2013-07-12 08:55:00
2:15 AM,41.0,28.4,61,30.17,10.0,Calm,Calm,-,N/A,,Clear,0,2013-07-12 09:15:00
2:35 AM,41.0,32.0,70,30.17,10.0,South,3.5,-,N/A,,Clear,190,2013-07-12 09:35:00
2:55 AM,39.2,30.2,70,30.17,10.0,Calm,Calm,-,N/A,,Clear,0,2013-07-12 09:55:00
3:15 AM,41.0,30.2,65,30.17,10.0,Calm,Calm,-,N/A,,Clear,0,2013-07-12 10:15:00
3:35 AM,39.2,30.2,70,30.17,10.0,Calm,Calm,-,N/A,,Clear,0,2013-07-12 10:35:00
3:55 AM,37.4,30.2,75,30.17,10.0,Calm,Calm,-,N/A,,Clear,0,2013-07-12 10:55:00
4:15 AM,37.4,30.2,75,30.17,10.0,South,3.5,-,N/A,,Clear,170,2013-07-12 11:15:00
4:35 AM,37.4,28.4,70,30.17,10.0,Calm,Calm,-,N/A,,Clear,0,2013-07-12 11:35:00
4:55 AM,37.4,28.4,70,30.17,10.0,SSW,3.5,-,N/A,,Clear,200,2013-07-12 11:55:00
5:15 AM,37.4,30.2,75,30.17,10.0,Calm,Calm,-,N/A,,Clear,0,2013-07-12 12:15:00
5:35 AM,37.4,28.4,70,30.17,10.0,Calm,Calm,-,N/A,,Clear,0,2013-07-12 12:35:00
5:55 AM,37.4,28.4,70,30.17,10.0,Calm,Calm,-,N/A,,Clear,0,2013-07-12 12:55:00
6:15 AM,35.6,28.4,75,30.18,10.0,Calm,Calm,-,N/A,,Clear,0,2013-07-12 13:15:00
6:35 AM,35.6,26.6,70,30.17,10.0,Calm,Calm,-,N/A,,Clear,0,2013-07-12 13:35:00
6:45 AM,39.2,28.4,65,30.17,10.0,Calm,Calm,-,N/A,,Clear,0,2013-07-12 13:45:00
7:55 AM,48.2,32.0,54,30.18,10.0,Calm,Calm,-,N/A,,Clear,0,2013-07-12 14:55:00
8:45 AM,57.2,32.0,38,30.17,10.0,Calm,Calm,-,N/A,,Clear,0,2013-07-12 15:45:00
9:45 AM,71.6,26.6,19,30.16,10.0,SW,11.5,19.6,N/A,,Clear,230,2013-07-12 16:45:00
10:45 AM,73.4,24.8,16,30.16,10.0,SSW,8.1,19.6,N/A,,Clear,210,2013-07-12 17:45:00
11:50 AM,75.2,24.8,15,30.16,10.0,SSW,12.7,23.0,N/A,,Clear,210,2013-07-12 18:50:00
12:50 PM,77.0,26.6,16,30.15,10.0,South,13.8,-,N/A,,Clear,180,2013-07-12 19:50:00
1:45 PM,77.0,26.6,16,30.15,10.0,South,15.0,-,N/A,,Clear,190,2013-07-12 20:45:00
2:50 PM,77.0,24.8,14,30.14,10.0,West,18.4,25.3,N/A,,Clear,270,2013-07-12 21:50:00
3:50 PM,77.0,24.8,14,30.10,10.0,West,16.1,23.0,N/A,,Clear,270,2013-07-12 22:50:00
4:50 PM,77.0,24.8,14,30.13,10.0,WNW,17.3,20.7,N/A,,Clear,290,2013-07-12 23:50:00
5:45 PM,75.2,26.6,17,30.14,10.0,SW,12.7,18.4,N/A,,Clear,230,2013-07-13 00:45:00
5:55 PM,75.2,26.6,17,30.14,10.0,WSW,15.0,20.7,N/A,,Clear,250,2013-07-13 00:55:00
6:15 PM,73.4,26.6,18,30.14,10.0,West,13.8,-,N/A,,Clear,260,2013-07-13 01:15:00
6:35 PM,73.4,28.4,19,30.14,10.0,WSW,15.0,18.4,N/A,,Clear,240,2013-07-13 01:35:00
6:55 PM,73.4,28.4,19,30.15,10.0,West,10.4,-,N/A,,Clear,270,2013-07-13 01:55:00
7:15 PM,71.6,28.4,20,30.15,10.0,West,10.4,-,N/A,,Clear,260,2013-07-13 02:15:00
7:35 PM,69.8,32.0,25,30.15,10.0,West,9.2,-,N/A,,Clear,260,2013-07-13 02:35:00
7:55 PM,68.0,32.0,26,30.15,10.0,West,8.1,-,N/A,,Clear,260,2013-07-13 02:55:00
8:15 PM,66.2,30.2,26,30.15,10.0,West,8.1,-,N/A,,Clear,270,2013-07-13 03:15:00
8:35 PM,64.4,28.4,26,30.15,10.0,West,4.6,-,N/A,,Clear,280,2013-07-13 03:35:00
8:55 PM,59.0,28.4,31,30.16,10.0,SE,4.6,-,N/A,,Clear,130,2013-07-13 03:55:00
9:15 PM,59.0,30.2,34,30.17,10.0,ESE,4.6,-,N/A,,Clear,120,2013-07-13 04:15:00
9:35 PM,53.6,30.2,41,30.18,10.0,SSE,5.8,-,N/A,,Clear,160,2013-07-13 04:35:00
9:55 PM,53.6,32.0,44,30.18,10.0,South,3.5,-,N/A,,Clear,180,2013-07-13 04:55:00
10:15 PM,50.0,32.0,50,30.19,10.0,South,5.8,-,N/A,,Clear,170,2013-07-13 05:15:00
10:35 PM,48.2,32.0,54,30.19,10.0,Calm,Calm,-,N/A,,Clear,0,2013-07-13 05:35:00
10:55 PM,53.6,32.0,44,30.19,10.0,Calm,Calm,-,N/A,,Clear,0,2013-07-13 05:55:00
11:15 PM,50.0,30.2,47,30.20,10.0,SSW,3.5,-,N/A,,Clear,200,2013-07-13 06:15:00
11:35 PM,48.2,32.0,54,30.20,10.0,SE,4.6,-,N/A,,Clear,140,2013-07-13 06:35:00
11:55 PM,46.4,28.4,50,30.20,10.0,South,3.5,-,N/A,,Clear,170,2013-07-13 06:55:00